Content
SEND FEEDBACK

Daily
Averages
Monthly
Summary
Canada

VANCOUVER, BRITISH COLUMBIA


Home > North America > Canada > British Columbia
Elevation: 7 feet     Latitude: 49 11N     Longitude: 123 10W

WEATHER
 
SELECT A DAY
Number of Records: 249,213;   Date Range: 5/15/97 - 4/23/14
 
SHARE

PRINT THIS DATA

[ ← Previous Day ]
WEATHER ALMANAC - MAY 1, 2013
[ Next Day → ]
[ °C ]   °F
Weather ElementAverageHighLow
Temperature47.4 °F55.4 °F (4:15 pm)41 °F (2:35 am)
Dewpoint37.2 °F41 °F (2:35 pm)32 °F (5:35 pm)
Humidity68.7 %87 % (4:55 am)41 % (5:35 pm)
Barometer30.54 in30.60 in (2:35 pm)30.43 in (12:35 am)
Wind Speed3 mph9.2 mph (9:15 am)
Weather ElementAverage
Visibility9.9 mi
Wind DirectionESE (98.8 °)

Weather ElementTotal
Precipitation---
Heating Degree Days16.8 (Base 65)
Averaged from 68 records on May 1, 2013
WEATHER CONDITIONS BREAKOUT
WIND DIRECTION BREAKOUT
WEATHER BY HOUR - MAY 1, 2013
[ °C ]   °F
Local TimeTemperatureDewpointHumidityBarometerVisibilityWind DirectionWind SpeedGust SpeedPrecipitationEventsConditions
12:35 AM44.6 °F33.8 °F66 %30.43 in10.0 miSouth (180°)5.8 mphClear
12:55 AM44.6 °F33.8 °F66 %30.44 in10.0 miSouth (190°)5.8 mphClear
1:15 AM44.6 °F33.8 °F66 %30.44 in10.0 miSouth (170°)4.6 mphClear
1:35 AM44.6 °F35.6 °F71 %30.45 in10.0 miSouth (190°)6.9 mphClear
1:55 AM42.8 °F35.6 °F76 %30.46 in10.0 miCalmClear
2:15 AM42.8 °F35.6 °F76 %30.46 in10.0 miCalmClear
2:35 AM41.0 °F35.6 °F81 %30.46 in10.0 miCalmClear
2:55 AM41.0 °F35.6 °F81 %30.46 in10.0 miCalmClear
3:35 AM41.0 °F35.6 °F81 %30.47 in10.0 miCalmClear
3:55 AM41.0 °F35.6 °F81 %30.47 in10.0 miCalmClear
4:15 AM41.0 °F35.6 °F81 %30.48 in10.0 miSouth (190°)3.5 mphClear
4:35 AM41.0 °F35.6 °F81 %30.48 in10.0 miCalmClear
4:55 AM41.0 °F37.4 °F87 %30.49 in10.0 miSouth (180°)3.5 mphClear
5:15 AM41.0 °F37.4 °F87 %30.50 in10.0 miSouth (180°)5.8 mphClear
5:35 AM41.0 °F37.4 °F87 %30.50 in10.0 miSouth (190°)6.9 mphClear
5:55 AM41.0 °F37.4 °F87 %30.51 in10.0 miSouth (190°)6.9 mphClear
6:15 AM41.0 °F37.4 °F87 %30.52 in10.0 miSouth (190°)8.1 mphClear
6:35 AM41.0 °F37.4 °F87 %30.52 in10.0 miSouth (190°)8.1 mphClear
6:55 AM42.8 °F39.2 °F87 %30.53 in8.0 miSouth (190°)8.1 mphClear
7:15 AM44.6 °F39.2 °F81 %30.54 in9.0 miSouth (190°)6.9 mphClear
7:35 AM44.6 °F39.2 °F81 %30.54 in10.0 miSouth (180°)6.9 mphClear
7:55 AM46.4 °F39.2 °F76 %30.55 in9.0 miSouth (170°)8.1 mphClear
8:15 AM46.4 °F39.2 °F76 %30.56 in9.0 miSouth (180°)4.6 mphClear
8:35 AM46.4 °F39.2 °F76 %30.55 in9.0 miSouth (180°)6.9 mphClear
8:55 AM46.4 °F39.2 °F76 %30.56 in10.0 miSouth (180°)5.8 mphClear
9:15 AM48.2 °F39.2 °F71 %30.57 in10.0 miSouth (190°)9.2 mphClear
9:35 AM48.2 °F39.2 °F71 %30.57 in10.0 miSouth (180°)5.8 mphClear
9:55 AM48.2 °F39.2 °F71 %30.57 in10.0 miSSW (200°)6.9 mphClear
10:15 AM48.2 °F39.2 °F71 %30.58 in10.0 miSSW (200°)5.8 mphClear
10:35 AM50.0 °F39.2 °F66 %30.58 in10.0 miCalmClear
10:55 AM48.2 °F39.2 °F71 %30.59 in10.0 miCalmClear
11:15 AM48.2 °F39.2 °F71 %30.59 in10.0 miNNE (30°)4.6 mphClear
11:35 AM50.0 °F39.2 °F66 %30.59 in10.0 miNE (40°)3.5 mphClear
11:55 AM50.0 °F39.2 °F66 %30.58 in10.0 miNorth (350°)5.8 mphClear
12:15 PM50.0 °F39.2 °F66 %30.59 in10.0 miNorth (10°)4.6 mphClear
12:35 PM50.0 °F39.2 °F66 %30.59 in10.0 miNE (40°)3.5 mphClear
12:55 PM50.0 °F39.2 °F66 %30.59 in10.0 miNorth (10°)4.6 mphClear
1:15 PM50.0 °F39.2 °F66 %30.59 in10.0 miNorth (360°)5.8 mphClear
1:35 PM50.0 °F39.2 °F66 %30.59 in10.0 miCalmClear
1:55 PM50.0 °F39.2 °F66 %30.59 in10.0 miNorth (360°)4.6 mphClear
2:15 PM50.0 °F39.2 °F66 %30.59 in10.0 miNorth (10°)4.6 mphClear
2:35 PM51.8 °F41.0 °F67 %30.60 in10.0 miNorth (360°)3.5 mphClear
2:55 PM51.8 °F41.0 °F67 %30.59 in10.0 miNorth (10°)4.6 mphClear
3:35 PM53.6 °F39.2 °F58 %30.59 in10.0 miNorth (360°)5.8 mphClear
3:55 PM53.6 °F39.2 °F58 %30.58 in10.0 miNorth (350°)4.6 mphClear
4:15 PM55.4 °F37.4 °F51 %30.58 in10.0 miNorth (350°)4.6 mphClear
4:35 PM53.6 °F39.2 °F58 %30.57 in10.0 miCalmClear
4:55 PM53.6 °F37.4 °F54 %30.57 in10.0 miCalmClear
5:15 PM53.6 °F39.2 °F58 %30.56 in10.0 miCalmClear
5:35 PM55.4 °F32.0 °F41 %30.56 in10.0 miCalmClear
5:55 PM55.4 °F35.6 °F47 %30.56 in10.0 miCalmClear
6:15 PM55.4 °F33.8 °F44 %30.55 in10.0 miCalmClear
6:35 PM55.4 °F33.8 °F44 %30.55 in10.0 miCalmClear
6:55 PM53.6 °F32.0 °F44 %30.55 in10.0 miCalmClear
7:15 PM55.4 °F32.0 °F41 %30.55 in10.0 miCalmClear
7:35 PM51.8 °F39.2 °F62 %30.54 in10.0 miCalmClear
7:55 PM50.0 °F39.2 °F66 %30.55 in10.0 miCalmClear
8:15 PM48.2 °F37.4 °F66 %30.55 in10.0 miCalmClear
8:35 PM46.4 °F35.6 °F66 %30.55 in10.0 miCalmClear
8:55 PM46.4 °F37.4 °F71 %30.55 in10.0 miCalmClear
9:15 PM44.6 °F35.6 °F71 %30.56 in10.0 miCalmClear
9:35 PM44.6 °F35.6 °F71 %30.56 in10.0 miCalmClear
10:15 PM44.6 °F33.8 °F66 %30.56 in10.0 miCalmClear
10:35 PM46.4 °F33.8 °F62 %30.56 in10.0 miCalmClear
10:55 PM46.4 °F33.8 °F62 %30.55 in10.0 miCalmClear
11:15 PM46.4 °F35.6 °F66 %30.56 in10.0 miCalmClear
11:35 PM44.6 °F35.6 °F71 %30.56 in10.0 miCalmClear
11:55 PM44.6 °F35.6 °F71 %30.56 in10.0 miCalmClear
Hourly data recorded from CZBB, located miles away from Vancouver, British Columbia







STORIES FROM OUR PARTNERS